Location: Nairn
(57.5833°N, 3.8667°W)
Time: 01:37:58
(UTC+00:00)

Cosmos 1758 Rocket - Pass Details

Date: 07 August 2020
Orbit: 602 x 635 km, 82.5° (Epoch: 19 September)

Event Time Altitude Azimuth Distance (km) Brightness Sun altitude
Rises 03:22:49 0° 348° (NNW) 2,875 7.5 -7.1°
Reaches altitude 10° 03:25:05 10° 353° (N) 1,965 6.7 -6.9°
Maximum altitude 03:29:21 56° 72° (ENE) 727 4.3 -6.5°
Drops below altitude 10° 03:33:36 10° 151° (SSE) 1,951 6.0 -6.1°
Sets 03:35:51 0° 156° (SSE) 2,852 6.8 -5.9°
